Regional Weather Roundup
Issued by NWS State College, PA

Home | Current Version | Previous Version | Text Only | Print | Product List | Glossary On
Versions: 1 2 3 4 5 6 7 8 9 10 11 12 13 14 15 16 17 18 19 20 21 22 23 24 25 26 27 28 29 30 31 32 33 34 35 36 37 38 39 40 41 42 43 44 45 46 47 48 49 50
000
ASUS41 KCTP 230510
RWRCTP

REGIONAL WEATHER ROUNDUP
NATIONAL WEATHER SERVICE STATE COLLEGE PA
100 AM EDT FRI JUN 23 2017

Note: "fair" indicates few or no clouds below 12,000 feet with no
significant weather and/or obstructions to visibility.

* = STATION THAT DOES NOT REPORT PRECIPITATION /E.G. RAIN...SNOW...ETC/
    THUNDER OR FOG.

PAZ002>004-007>009-013>016-020>023-029>032-230600-
WESTERN PENNSYLVANIA

CITY           SKY/WX    TMP DP  RH WIND       PRES   REMARKS
ERIE           CLOUDY    77  68  73 S17       29.81F
MEADVILLE      CLOUDY    73  69  87 S8        29.89F
FRANKLIN*      CLOUDY    70  64  83 S12       29.91F
NEW CASTLE     FAIR      74  69  85 VRB6      29.90F
BEAVER COUNTY  NOT AVBL
BUTLER*        CLOUDY    73  66  78 SW9       29.92F
PITTSBURGH INT CLOUDY    75  69  81 SW9G18    29.93F
PITTSBURGH     CLOUDY    74  67  78 SW13      29.93F
INDIANA*       CLEAR     68  68 100 CALM      29.97F
LATROBE        CLOUDY    73  68  83 SW7       29.95F
WASHINGTON CO* CLOUDY    72  66  83 SW10      29.97F
$$

PAZ004>006-010>012-017>019-024>028-033>037-041-042-045-046-049>053-230600-
CENTRAL PENNSYLVANIA

CITY           SKY/WX    TMP DP  RH WIND       PRES   REMARKS
BRADFORD       PTCLDY    68  67  96 VRB6      29.93F
DUBOIS         CLOUDY    70  65  84 SW8       29.94F
CLEARFIELD     CLOUDY    67  66  97 SW5       29.95F
JOHNSTOWN      MOCLDY    69  65  86 SW7       29.99F
ALTOONA        MOCLDY    67  67 100 CALM      29.97F FOG
STATE COLLEGE  CLOUDY    68  66  92 W5        29.94F
WILLIAMSPORT   CLOUDY    72  69  90 CALM      29.89F
SELINSGROVE    MOCLDY    71  71 100 CALM      29.91F
FT INDIANTOWN  CLOUDY    70  70 100 CALM      29.91F FOG
CAPITAL CITY   CLOUDY    72  68  87 CALM      29.91F
HARRISBURG     CLOUDY    72  70  93 CALM      29.90F
YORK           PTCLDY    69  69 100 CALM      29.92F
$$

PAZ038>040-043-044-047-048-054-055-060>062-067>071-230600-
EASTERN PENNSYLVANIA

CITY           SKY/WX    TMP DP  RH WIND       PRES   REMARKS
SCRANTON       CLOUDY    74  69  85 SW5       29.91F
MOUNT POCONO   PTCLDY    69  66  90 W7        29.97F
ALLENTOWN      CLOUDY    76  69  79 SW5       29.91F
QUAKERTOWN*    PTCLDY    75  72  88 CALM      29.93F
READING        CLOUDY    73  73 100 CALM      29.90F
LANCASTER      CLOUDY    75  73  93 W3        29.92F
COATESVILLE    PTCLDY    75  72  88 SW5       29.95F
POTTSTOWN      CLOUDY    77  70  79 CALM      29.93F
BLUE BELL      CLOUDY    73  70  88 CALM      29.93F
DOYLESTOWN     MOCLDY    77  70  79 CALM      29.91F
WILLOW GROVE   NOT AVBL
NORTH PHILA    CLOUDY    80  71  74 SW6       29.92F
PHILADELPHIA   CLOUDY    79  71  76 S7        29.91F
$$



USA.gov is the U.S. government's official web portal to all federal, state and local government web resources and services.